Flag for Germany Weather past 2 weeks in Neustadt am Rübenberge, Lower Saxony, Germany

Now
59 °F

Refreshingly cool.


Feels Like: 60 °F
Forecast: 39 / 63 °F
Wind: 3 mph from Northwest

Location: Wunstorf Airport

Current Time: Apr 19, 2015 at 5:19:22 PM

Latest Report: Apr 19, 2015 at 4:20 PM


Visibility: 4 mi

Pressure: 30.21 "Hg

Humidity: 36%

Dew point: 32 °F

Location of Neustadt am RübenbergeLocation

Historic Weather in Neustadt am Rübenberge — Graph

°F

Neustadt am Rübenberge temperature yesterday

Maximum temperature yesterday: 57 °F (at 5:20 PM)
Minimum temperature yesterday: 37 °F (at 5:20 AM)
Average temperature yesterday: 47 °F

Past Weeks' High & Low Weather Summary

 TemperatureHumidityPressure
High72 °F (Apr 15, 3:20 PM)100% (Apr 9, 2:20 AM)30.57 "Hg (Apr 9, 2:20 AM)
Low30 °F (Apr 5, 6:20 AM)30% (Apr 5, 4:20 PM)29.89 "Hg (Apr 15, 6:20 PM)
Average49 °F65%30.24 "Hg
* Reported Apr 4 3:20 PM — Apr 19 3:20 PM, Neustadt am Rübenberge, Weather by CustomWeather, © 2015

Note: Actual official high and low records may vary slightly from our data, if they occured in-between our weather recording intervals... More about our weather records

Advertising

Neustadt am Rübenberge weather history for previous 24 hours

 ConditionsComfort  
Time TempWeatherWind HumidityBarometerVisibility
3:20 PM
Sun, Apr 19
57 °FRefreshingly cool.2 mph39%30.21 "Hg4 mi
2:20 PM55 °FRefreshingly cool.2 mph41%30.21 "Hg4 mi
1:20 PM54 °FCool.3 mph51%30.21 "Hg4 mi
12:20 PM52 °FCool.3 mph54%30.21 "Hg4 mi
11:20 AM48 °FCool.3 mph66%30.21 "Hg4 mi
10:20 AM46 °FCool.2 mph66%30.21 "Hg5 mi
9:20 AM43 °FQuite cool.2 mph76%30.21 "Hg3 mi
8:20 AM41 °FQuite cool.2 mph87%30.21 "Hg3 mi
7:20 AM41 °FQuite cool.5 mph87%30.21 "Hg3 mi
6:20 AM39 °FChilly.2 mph87%30.18 "Hg3 mi
5:20 AM39 °FChilly.5 mph87%30.18 "Hg3 mi
4:20 AM41 °FQuite cool.5 mph81%30.21 "Hg3 mi
3:20 AM41 °FQuite cool.7 mph87%30.21 "Hg3 mi
2:20 AM41 °FQuite cool.5 mph87%30.24 "Hg3 mi
1:20 AM41 °FQuite cool.5 mph81%30.24 "Hg4 mi
12:20 AM43 °FQuite cool.7 mph76%30.24 "Hg4 mi
11:20 PM
Sat, Apr 18
45 °FQuite cool.6 mph66%30.24 "Hg4 mi
10:20 PM46 °FCool.7 mph62%30.27 "Hg4 mi
9:20 PM50 °FCool.8 mph50%30.24 "Hg4 mi
8:20 PM52 °FCool.5 mph41%30.24 "Hg2 mi
7:20 PM55 °FRefreshingly cool.7 mph36%30.24 "Hg4 mi
6:20 PM55 °FRefreshingly cool.10 mph36%30.24 "Hg4 mi
5:20 PM57 °FRefreshingly cool.10 mph33%30.27 "Hg4 mi
Weather by CustomWeather, © 2015

See weather overviewHow to use our weather pages